[[{"header":{"parameterUnit":"m.s-1","parameterCategory":1,"la1":30.2991,"la2":30.254,"lo1":-89.0895,"lo2":-89.0444,"dy":0.0017,"dx":0.0017,"nx":28,"ny":28,"refTime":"2025-01-27T03:00:00:Z","depth":0,"parameterNumber":2,"parameterNumberName":"U-component_of_WINDS"},"data":[0,0,0,0,0,0,0,0,0,0,0,0,0,0,0,0,0,0,0,0,0,0,0,0,0,0,0,0,0,0,0,0,0,0,0,0,0,0,0,0,0,0,0,0,0,0,0,0,0,0,0,0,0,0,0,0,0,0,0.9652,0.9653,0,0.9714,0.9715,0.9715,0.9748,0.9748,0.9748,0.9748,0.9811,0.9813,0.9814,0,0,0,0,0,0,0,0,0,0,0,0,0,0.956,0.9562,0.9652,0.9653,0.9654,0.9714,0.9715,0.9715,0.9748,0.9748,0.9748,0.9748,0.981,0.9812,0.9814,0,0,0,0,0,0,0,0,0,0,0,0,0,0.9609,0.9563,0.9652,0.9677,0.968,0.9714,0.9715,0.9716,0.9748,0.9748,0.9748,0.9748,0.981,0.9812,0.9815,0.9828,0,0,0.9822,0.9823,0,0,0,0,0,0,0,0,0.9606,0.9612,0.9673,0.9675,0.9679,0.9723,0.9705,0.9753,0.9748,0.9722,0.9748,0.9748,0.9782,0.9786,0.9798,0.9831,0.9834,0.9822,0.9824,0.9825,0.9826,0,0,0,0,0,0,0,0.9603,0.961,0.9677,0.9673,0.9677,0.9685,0.9692,0.9715,0.9751,0.9724,0.9727,0.9734,0.9783,0.9795,0.98,0.9835,0.9822,0.9824,0.9826,0.9827,0.9879,0.9879,0,0,0,0,0,0,0.9596,0.9607,0.9675,0.9678,0.9642,0.9686,0.9694,0.9709,0.975,0.9757,0.9733,0.9735,0.9791,0.9797,0.9802,0.9819,0.9825,0.9827,0.9829,0.9879,0.9879,0.9879,0,0,0,0,0,0,0.9593,0.9601,0.9672,0.9643,0.9653,0.9688,0.9704,0.971,0.9722,0.9757,0.9764,0.9739,0.9791,0.9798,0.9821,0.9821,0.9828,0.983,0.9879,0.9879,0.9879,0.9853,0,0,0,0,0,0,0.9591,0.96,0.9607,0.9643,0.9654,0.969,0.9704,0.9711,0.9726,0.9729,0.9765,0.9771,0.9792,0.9817,0.9823,0.9825,0.9832,0.9879,0.9879,0.9879,0.9854,0.9852,0.985,0,0,0,0,0,0.9587,0.9598,0.9607,0.9615,0.9663,0.9691,0.9697,0.9721,0.9726,0.9732,0.9754,0.977,0.982,0.9819,0.9826,0.9829,0.9879,0.9879,0.9879,0.9855,0.9852,0.985,0,0,0,0,0,0,0.9561,0.9603,0.9614,0.9636,0.9659,0.9696,0.9704,0.9718,0.9741,0.9742,0.9772,0.9779,0.9798,0.9816,0.9814,0.9842,0.9851,0.9852,0.983,0.9828,0.9827,0.9822,0.9834,0,0,0,0,0,0.9558,0.9577,0.9612,0.9629,0.964,0.967,0.9683,0.9699,0.9725,0.9735,0.9759,0.9783,0.9804,0.9817,0.9839,0.9856,0.9864,0.9861,0.986,0.9858,0.9859,0.9867,0.9866,0.9878,0.9878,0.9878,0,0,0.9551,0.9577,0.9587,0.9624,0.9644,0.9662,0.9678,0.9698,0.9711,0.9738,0.976,0.9778,0.9806,0.9825,0.9835,0.9841,0.9857,0.9858,0.9856,0.9858,0.9867,0.9865,0.9864,0.9878,0.9878,0.9878,0,0,0.9549,0.9571,0.9585,0.9604,0.9634,0.9653,0.9657,0.9691,0.9703,0.9726,0.9745,0.9761,0.9798,0.9816,0.983,0.9831,0.9845,0.9837,0.9828,0.9836,0.9835,0.9834,0.9833,0.9832,0.9838,0.9838,0.9838,0,0.9537,0.9566,0.9591,0.9609,0.9624,0.9647,0.9662,0.9679,0.9714,0.9723,0.9729,0.9773,0.9794,0.9816,0.9816,0.9827,0.9831,0.9834,0.9833,0.9832,0.9832,0.9831,0.9831,0.9837,0.9837,0.9837,0.9837,0,0.955,0.9569,0.9577,0.9609,0.9625,0.9641,0.9667,0.968,0.9694,0.9712,0.9733,0.9759,0.9784,0.9791,0.9806,0.9815,0.9817,0.9827,0.9837,0.9829,0.9828,0.9828,0.9835,0.9835,0.9836,0.9836,0,0,0.9535,0.9578,0.958,0.9594,0.9627,0.9642,0.9658,0.9682,0.9692,0.9714,0.9727,0.9756,0.9764,0.978,0.9797,0.9804,0.98,0.9813,0.9814,0.9808,0.9809,0.9801,0.98,0.981,0.981,0.981,0.9806,0,0.9536,0.9566,0.9587,0.9608,0.9625,0.9646,0.966,0.9681,0.9697,0.9714,0.9732,0.9751,0.9762,0.9771,0.9779,0.9799,0.9801,0.98,0.9821,0.9821,0.9812,0.98,0.9792,0.9788,0.9807,0.9807,0.9807,0,0.9543,0.9563,0.9585,0.9613,0.9621,0.9633,0.9656,0.9671,0.9694,0.9706,0.9722,0.9739,0.9755,0.9762,0.9783,0.9782,0.9792,0.9802,0.9803,0.9805,0.9813,0.9801,0.9788,0.9787,0.9807,0.9807,0.9807,0,0.9527,0.956,0.9577,0.9588,0.9622,0.9629,0.9644,0.9667,0.9679,0.9699,0.9707,0.9728,0.974,0.9755,0.9776,0.978,0.9795,0.9805,0.9804,0.9803,0.9806,0.9806,0.9793,0.9813,0.9813,0.9813,0.9813,0,0.9526,0.9539,0.957,0.9581,0.9595,0.9618,0.9631,0.9647,0.9667,0.968,0.97,0.9711,0.9739,0.9753,0.977,0.9784,0.9789,0.9798,0.9802,0.9796,0.9794,0.9802,0.9803,0.9813,0.9813,0.9813,0.9813,0,0.9512,0.9534,0.9554,0.9583,0.959,0.9599,0.9624,0.9634,0.9651,0.9666,0.9672,0.9698,0.9715,0.9738,0.9763,0.9774,0.9786,0.9793,0.9778,0.978,0.9777,0.9777,0.9768,0.9768,0.979,0.9789,0.9789,0,0.951,0.952,0.9549,0.9559,0.9572,0.9588,0.96,0.9623,0.9635,0.966,0.9666,0.9685,0.9702,0.9728,0.9749,0.9768,0.9775,0.9771,0.9778,0.977,0.9773,0.9772,0.9772,0.9769,0.9768,0.9768,0.9768,0,0.9504,0.9513,0.953,0.9549,0.9562,0.9579,0.9597,0.9603,0.9629,0.9641,0.9659,0.9671,0.9695,0.9713,0.9734,0.9748,0.9761,0.9765,0.9766,0.9759,0.9749,0.9753,0.9772,0.9765,0.9766,0.9766,0.9766,0.9766,0.9495,0.9503,0.9525,0.9541,0.9556,0.9571,0.9581,0.9598,0.9614,0.9635,0.9647,0.9664,0.9684,0.9713,0.9726,0.9738,0.9744,0.9745,0.9745,0.9745,0.9742,0.9747,0.9742,0.9742,0.9742,0.9742,0.9743,0,0.9488,0.9502,0.9517,0.954,0.9552,0.9563,0.9582,0.9592,0.9606,0.9624,0.9638,0.9657,0.9674,0.9695,0.9713,0.9718,0.9725,0.9722,0.9722,0.9724,0.9737,0.9734,0.9716,0.9716,0.9716,0.9716,0.9716,0.9716,0.9486,0.95,0.9511,0.9532,0.9546,0.9562,0.9572,0.9585,0.9598,0.9618,0.9632,0.9645,0.9663,0.9682,0.9697,0.9702,0.9707,0.9702,0.971,0.9721,0.9724,0.9726,0.9723,0.9704,0.9704,0.9696,0.9696,0.9696]},{"header":{"parameterUnit":"m.s-1","parameterCategory":1,"la1":30.2991,"la2":30.254,"lo1":-89.0895,"lo2":-89.0444,"dy":0.0017,"dx":0.0017,"nx":28,"ny":28,"refTime":"2025-01-27T03:00:00:Z","depth":0,"parameterNumber":3,"parameterNumberName":"V-component_of_WINDS"},"data":[0,0,0,0,0,0,0,0,0,0,0,0,0,0,0,0,0,0,0,0,0,0,0,0,0,0,0,0,0,0,0,0,0,0,0,0,0,0,0,0,0,0,0,0,0,0,0,0,0,0,0,0,0,0,0,0,0,0,2.0735,2.0735,0,2.073,2.073,2.073,2.0734,2.0734,2.0734,2.0734,2.0727,2.0727,2.0727,0,0,0,0,0,0,0,0,0,0,0,0,0,2.0747,2.0747,2.0735,2.0735,2.0735,2.073,2.073,2.073,2.0734,2.0734,2.0734,2.0734,2.0727,2.0727,2.0727,0,0,0,0,0,0,0,0,0,0,0,0,0,2.0742,2.0747,2.0735,2.0737,2.0737,2.073,2.073,2.073,2.0734,2.0734,2.0734,2.0734,2.0727,2.0727,2.0726,2.0718,0,0,2.0725,2.0725,0,0,0,0,0,0,0,0,2.0742,2.0741,2.0736,2.0736,2.0737,2.0733,2.0732,2.0726,2.0734,2.0735,2.0734,2.0734,2.0729,2.0728,2.0727,2.0718,2.0718,2.0725,2.0725,2.0724,2.0724,0,0,0,0,0,0,0,2.0743,2.0742,2.0733,2.0736,2.0736,2.0737,2.0736,2.0731,2.073,2.0735,2.0735,2.0734,2.0729,2.0727,2.0726,2.0718,2.0725,2.0724,2.0724,2.0724,2.0701,2.0701,0,0,0,0,0,0,2.0743,2.0742,2.0734,2.0733,2.074,2.0736,2.0736,2.0734,2.073,2.073,2.0734,2.0734,2.0728,2.0727,2.0726,2.0716,2.0724,2.0724,2.0724,2.0701,2.0701,2.0701,0,0,0,0,0,0,2.0743,2.0742,2.0734,2.0738,2.0737,2.0736,2.0734,2.0734,2.0732,2.073,2.073,2.0732,2.0728,2.0727,2.072,2.0716,2.0724,2.0723,2.0702,2.0701,2.0701,2.0695,0,0,0,0,0,0,2.0744,2.0742,2.074,2.0738,2.0736,2.0728,2.0733,2.0733,2.0731,2.0732,2.0728,2.0728,2.0728,2.0721,2.072,2.0715,2.0723,2.0702,2.0702,2.0701,2.0696,2.0695,2.0694,0,0,0,0,0,2.0744,2.0738,2.0739,2.0738,2.0733,2.0728,2.0727,2.0728,2.0731,2.0728,2.0726,2.0728,2.0717,2.072,2.0719,2.0714,2.0702,2.0702,2.0701,2.0696,2.0695,2.0694,0,0,0,0,0,0,2.0739,2.0738,2.0739,2.0733,2.073,2.0729,2.0725,2.0726,2.0723,2.0723,2.0724,2.0723,2.0716,2.0714,2.0718,2.0706,2.071,2.0709,2.0707,2.0705,2.0704,2.0704,2.0722,0,0,0,0,0,2.0737,2.0734,2.0733,2.0727,2.0726,2.0726,2.0723,2.0724,2.0721,2.072,2.0719,2.0716,2.0711,2.0708,2.0704,2.0696,2.0695,2.0692,2.0691,2.069,2.0689,2.0683,2.0682,2.0698,2.0698,2.0698,0,0,2.0733,2.0732,2.073,2.0726,2.0724,2.072,2.0725,2.072,2.0717,2.072,2.0713,2.0712,2.0708,2.07,2.0697,2.0699,2.0684,2.0689,2.0688,2.0688,2.0682,2.0681,2.0679,2.0698,2.0698,2.0698,0,0,2.0724,2.0723,2.0718,2.0716,2.0714,2.0714,2.0713,2.071,2.071,2.0703,2.0705,2.0701,2.0693,2.0691,2.0688,2.0678,2.0679,2.0676,2.0671,2.0665,2.0664,2.0663,2.0658,2.0657,2.0676,2.0676,2.0676,0,2.0719,2.0714,2.0715,2.071,2.0708,2.0711,2.0705,2.0703,2.07,2.0698,2.07,2.0691,2.0689,2.068,2.0677,2.0676,2.0673,2.0677,2.0664,2.0663,2.0662,2.0657,2.0656,2.0675,2.0675,2.0675,2.0675,0,2.0708,2.0704,2.07,2.0696,2.0694,2.0688,2.0688,2.0686,2.0686,2.0686,2.0679,2.0676,2.0671,2.067,2.067,2.0661,2.0662,2.0664,2.0668,2.066,2.0656,2.0654,2.0675,2.0675,2.0675,2.0675,0,0,2.0695,2.0692,2.0691,2.0689,2.0686,2.0683,2.0678,2.0673,2.067,2.0668,2.0662,2.0656,2.0658,2.0656,2.0656,2.0651,2.0642,2.0654,2.0654,2.0651,2.063,2.0628,2.0626,2.0643,2.0643,2.0643,2.063,0,2.0685,2.0676,2.0677,2.0668,2.0664,2.0666,2.0662,2.0659,2.0658,2.0654,2.0653,2.0648,2.0652,2.065,2.0646,2.0644,2.0638,2.0645,2.0637,2.0637,2.0637,2.0624,2.0621,2.061,2.0629,2.0628,2.0628,0,2.0672,2.0669,2.066,2.0657,2.0656,2.0651,2.0647,2.0644,2.064,2.064,2.0637,2.0638,2.0632,2.0637,2.0627,2.0633,2.0629,2.0628,2.0628,2.0626,2.0632,2.0621,2.0606,2.0604,2.0626,2.0626,2.0626,0,2.0662,2.0656,2.065,2.0648,2.0646,2.0642,2.0641,2.0638,2.0635,2.0632,2.063,2.0625,2.0622,2.0618,2.0618,2.0621,2.0608,2.0613,2.0607,2.0607,2.0603,2.0603,2.0587,2.0603,2.0603,2.0603,2.0603,0,2.065,2.0645,2.0645,2.0641,2.0634,2.0636,2.0629,2.0628,2.0625,2.062,2.0622,2.0618,2.0618,2.0612,2.0612,2.0604,2.0603,2.0602,2.0601,2.0601,2.0601,2.0598,2.0599,2.0602,2.0602,2.0602,2.0603,0,2.0638,2.0639,2.0632,2.063,2.0629,2.0624,2.0622,2.0618,2.0618,2.0612,2.061,2.0609,2.0603,2.0602,2.0595,2.0595,2.0585,2.0586,2.0586,2.0586,2.0579,2.058,2.056,2.0557,2.0575,2.0575,2.0575,0,2.063,2.0626,2.0624,2.0621,2.062,2.0615,2.0612,2.0613,2.061,2.0606,2.0602,2.0596,2.0592,2.0582,2.058,2.0575,2.0575,2.0569,2.0574,2.0574,2.0574,2.0574,2.0573,2.0567,2.0567,2.0567,2.0567,0,2.0616,2.0616,2.0613,2.0609,2.0605,2.0602,2.0599,2.0597,2.0597,2.0593,2.0588,2.0584,2.0577,2.0571,2.0566,2.0563,2.0565,2.0565,2.0563,2.0562,2.0562,2.0561,2.0582,2.0565,2.0565,2.0565,2.0566,2.0566,2.0605,2.0601,2.0599,2.0594,2.0592,2.0589,2.0585,2.0584,2.058,2.0574,2.0575,2.0568,2.0565,2.0558,2.0555,2.0549,2.0551,2.0549,2.0548,2.0547,2.0546,2.0564,2.0548,2.0548,2.0549,2.0549,2.0549,0,2.059,2.0589,2.0585,2.0581,2.0577,2.0579,2.0576,2.0572,2.0567,2.0564,2.056,2.0552,2.0547,2.0544,2.0538,2.0534,2.0534,2.0532,2.0532,2.0532,2.0545,2.0547,2.0532,2.0532,2.0532,2.0532,2.0532,2.0532,2.0582,2.0575,2.0575,2.0567,2.0565,2.0559,2.0557,2.0554,2.0552,2.0544,2.0539,2.0538,2.0535,2.0529,2.0523,2.0522,2.052,2.0517,2.0517,2.0529,2.0531,2.0532,2.0534,2.0517,2.0517,2.0504,2.0503,2.0503]}]]